STARLINK-1454, 45671

Orbit data source: Space-Track

STARLINK-1454, 45671 is a payload satellite owned by SpaceX/Seattle (US) in LEO that was launched on Thu, 04 Jun 2020 UTC via an FALCON 9 launch vehicle from the Air Force Eastern Test Range (AFETR). Payloads include a variety of satellites, spacecraft, and rockets equipped with specific instruments for various scientific and technological missions. These include communications satellites like Starlink; space stations such as the ISS; scientific satellites like the Hubble; Earth observation satellites from companies like Planet Labs, Umbra, and HawkEye 360; GPS; miniature CubeSats for education and research; and military/defense satellites.

Loading next visibility...
STARLINK-1454 details
Identifier
45671, 2020-035Q
Orbit
LEO
Last TLE update21 hours ago
Origin
Flag of USSpaceX/Seattle (US)
ManufacturerSpaceX/Seattle
MissionOperational Commercial Communications
Bus & MotorSTARLINK, Unknown motor
Mass260 kg wet, ~248 kg dry
Launch date (UTC)
2020-06-04 (5 years ago)
Launch vehicle
FALCON 9
Launch site
Air Force Eastern Test Range (AFETR)
Object type
Payload
Rocket body
Debris
Shape & HBRBox + 1 Pan, 8.86 m
Radar Cross Section13.562 m², Large (>1 m²)

Expand to show TLE details & history

TLE from 21 hours ago
0 STARLINK-1454
1 45671U 20035Q   24360.90124993  .00012736  00000-0  87217-3 0  9992
2 45671  53.0547 236.4201 0001487 104.9638 255.1516 15.06409046252580
Epoch: 2024-12-25T21:37Z
Definitive object data (Epoch: 2024-12-25T21:37:47.993Z)
Latitude-0.00002°
Longitude177.08176°
Altitude548.327 km
Speed7.589 km/s
True Right ascension15h 45m 40s
True Declination0° 00' 00"
Sunlit
Object was in daylight at TLE epoch
Visualization TLE readout
Latitude-13.80555°
Longitude162.6325°
Altitude551.385 km
Speed7.586 km/s
Apparent Right ascension11h 41m 05s
Apparent Declination-51° 30' 54"
Sunlit
Object is in daylight
Visualization observer readout
Local Sidereal Time17:37:40
Azimuth225.742° WSW
Elevation-29.681°
Doppler factor1
Orbital elements
Apogee altitude548.484 km
Perigee altitude546.425 km
Semi-major axis6,925.592 km
Eccentricity0.0001487
Inclination53.0547°
RAAN236.4201°
Arg. of periapsis104.9638°
True anomaly255.13513°
Mean anomaly255.1516°
Eccentric anomaly255.14336°
Mean motion3.76581 °/min
BSTAR0.00087217
Orbital period95.6 mins
Loading maneuver chart data...

STARLINK-1454 Visibility forecast

Observer location: undefined°, undefined

Span
Click to sort rows by Start time (UTC) header in descending order
Start Az.
Max El. time (UTC)
Max El. Az.
Max El.
End time (UTC)
End Az.
7 mins2024-12-26 18:30:12.473Z222.236° SW2024-12-26 18:33:12.473Z185.993° SSW43.054°2024-12-26 18:37:12.473Z53.551° ENE
5 mins2024-12-26 20:11:12.473Z293.892° NW2024-12-26 20:13:12.473Z331.045° NNW21.354°2024-12-26 20:16:12.473Z25.274° NE
4 mins2024-12-26 23:33:12.473Z346.83° N2024-12-26 23:35:12.473Z23.382° NE18.169°2024-12-26 23:37:12.473Z57.508° ENE
6 mins2024-12-27 01:12:12.473Z314.866° NW2024-12-27 01:15:12.473Z56.012° ENE43.812°2024-12-27 01:18:12.473Z122.74° SE
|